Location: *
(58.4167°N, 22.5000°E)
Time: 09:07:11
(UTC+00:00)

Cosmos 2219 Rocket - Pass Details

Date: 22 September 2019
Orbit: 829 x 845 km, 71.0° (Epoch: 17 October)

Event Time Altitude Azimuth Distance (km) Brightness Sun altitude
Rises 17:27:31 0° 320° (NW) 3,385 6.3 -8.2°
Reaches altitude 10° 17:30:17 10° 309° (NW) 2,448 5.8 -8.6°
Maximum altitude 17:34:52 27° 254° (WSW) 1,560 4.4 -9.1°
Drops below altitude 10° 17:39:28 10° 199° (SSW) 2,440 4.6 -9.7°
Sets 17:42:13 0° 187° (S) 3,372 5.2 -10.1°
